This demonstration page uses our WeatherBlox Daily Observations layout. Learn more.

Left ArrowRight Arrow

38.20091, -84.87328

Hourly Observations for July 18, 2022

Temp ( °F °C ) Dew Point ( °F °C ) Humidity (%) Winds ( mph kmh ) Pressure ( in mb ) Visibility ( mi km ) Precip ( " mm )
12:53 am 00:53 Cloudy with Heavy Rain 72 22.2 70 21.1 94 94 SW 9 15 29.91 1013 3 4 0.26 6.60
1:16 am 01:16 Cloudy with Rain 72 22.2 70 21.1 94 94 Calm 29.88 1012 4 6 0.12 3.05
1:32 am 01:32 Cloudy with Nearby Thunderstorms 72 22.2 69 20.6 91 91 VRB 3 6 29.88 1012 3 4 0.18 4.57
1:41 am 01:41 Cloudy with Nearby Thunderstorms 72 22.2 69 20.6 91 91 SW 8 13 29.90 1013 3 5 0.21 5.33
1:53 am 01:53 Cloudy with Nearby Thunderstorms 72 22.2 70 21.1 94 94 SSW 10 17 29.91 1013 3 5 0.26 6.60
2:09 am 02:09 Cloudy with Heavy Rain 72 22.2 70 21.1 94 94 SSW 6 9 29.89 1012 3 5 0.07 1.78
2:24 am 02:24 Mostly Cloudy with Rain 72 22.2 70 21.1 94 94 Calm 29.87 1012 4 6 0.13 3.30
2:53 am 02:53 Mostly Clear with Light Rain 72 22.2 70 21.1 94 94 Calm 29.86 1011 10 16 0.15 3.81
3:10 am 03:10 Mostly Cloudy with Heavy Rain 72 22.2 70 21.1 94 94 N 7 11 29.85 1011 2 3 0.11 2.79
3:25 am 03:25 Cloudy with Rain 72 22.2 70 21.1 94 94 N 5 7 29.84 1011 3 5 0.23 5.84
3:45 am 03:45 Cloudy with Nearby Thunderstorms 72 22.2 70 21.1 94 94 Calm 29.85 1011 6 10 0.26 6.60
3:53 am 03:53 Cloudy with Nearby Thunderstorms 72 22.2 70 21.1 94 94 S 5 7 29.85 1011 7 11 0.27 6.86
4:14 am 04:14 Mostly Cloudy with Light Rain 72 22.2 70 21.1 94 94 SSE 3 6 29.84 1011 6 10 0.04 1.02
4:23 am 04:23 Partly Cloudy with Nearby Thunderstorms 72 22.2 70 21.1 94 94 SSE 7 11 29.84 1010 6 10 0.05 1.27
4:42 am 04:42 Mostly Cloudy with Nearby Thunderstorms 71 21.7 70 21.1 96 96 SE 8 13 29.83 1010 4 6 0.10 2.54
4:50 am 04:50 Cloudy with Rain 72 22 70 21 94 94 ESE 6 9 29.83 1010 5 8 0.12 3.05
4:53 am 04:53 Mostly Cloudy with Rain 71 21.7 70 21.1 96 96 SE 5 7 29.82 1010 6 10 0.13 3.30
5:17 am 05:17 Mostly Cloudy with Light Rain 71 21.7 70 21.1 96 96 S 5 7 29.84 1010 8 13 0.03 0.76
5:27 am 05:27 Mostly Cloudy 71 21.7 70 21.1 96 96 S 7 11 29.85 1011 10 16 0.03 0.76
5:44 am 05:44 Cloudy 71 21.7 70 21.1 96 96 SSE 8 13 29.84 1010 10 16 0.03 0.76
5:53 am 05:53 Cloudy with Light Rain 71 21.7 70 21.1 96 96 S 6 9 29.84 1011 10 16 0.03 0.76
6:02 am 06:02 Cloudy with Light Rain 71 21.7 70 21.1 96 96 S 6 9 29.85 1011 10 16 0.00 0.00
6:22 am 06:22 Cloudy 71 21.7 70 21.1 96 96 SSW 5 7 29.86 1011 10 16 0.00 0.00
6:40 am 06:40 Cloudy 71 21.7 69 20.6 94 94 Calm 29.86 1011 10 16 0.00 0.00
6:53 am 06:53 Cloudy with Light Rain 71 21.7 69 20.6 94 94 SW 3 6 29.86 1011 10 16 0.00 0.00
7:31 am 07:31 Cloudy 71 21.7 69 20.6 94 94 SSW 3 6 29.89 1012 10 16 0.00 0.00
7:53 am 07:53 Cloudy with Light Rain 71 21.7 70 21.1 96 96 Calm 29.88 1012 8 13 0.01 0.25
8:53 am 08:53 Cloudy 72 22.2 70 21.1 94 94 SSW 8 13 29.90 1013 10 16 0.01 0.25
9:15 am 09:15 Cloudy with Mist and Fog 72 22.2 70 21.1 94 94 SW 9 15 29.90 1013 6 10 0.00 0.00
9:26 am 09:26 Cloudy with Mist and Fog 72 22.2 70 21.1 94 94 SW 8 13 29.90 1013 3 5 0.00 0.00
9:53 am 09:53 Cloudy 72 22.2 70 21.1 94 94 SW 8 13 29.91 1013 7 11 0.00 0.00
10:14 am 10:14 Cloudy with Mist and Fog 72 22.2 70 21.1 94 94 SW 7 11 29.90 1013 5 8 0.00 0.00
10:33 am 10:33 Cloudy with Mist and Fog 73 22.8 70 21.1 90 90 SW 8 13 29.91 1013 5 8 0.00 0.00
10:46 am 10:46 Cloudy 73 22.8 71 21.7 94 94 SW 8 13 29.91 1013 7 11 0.00 0.00
10:53 am 10:53 Cloudy 73 22.8 71 21.7 94 94 SW 9 15 29.91 1013 10 16 0.00 0.00
11:25 am 11:25 Cloudy 74 23.3 70 21.1 88 88 WSW 6 9 29.91 1013 10 16 0.00 0.00
11:53 am 11:53 Cloudy 74 23.3 71 21.7 91 91 WSW 6 9 29.92 1013 10 16 0.00 0.00
12:44 pm 12:44 Cloudy 74 23.3 70 21.1 88 88 WSW 5 7 29.92 1013 10 16 0.00 0.00
12:53 pm 12:53 Cloudy 75 23.9 71 21.7 88 88 WSW 3 6 29.92 1013 10 16 0.00 0.00
1:24 pm 13:24 Cloudy 76 24.4 71 21.7 85 85 SW 5 7 29.90 1012 10 16 0.00 0.00
1:35 pm 13:35 Cloudy 75 23.9 70 21.1 84 84 WSW 8 13 29.90 1013 10 16 0.00 0.00
1:53 pm 13:53 Cloudy 76 24.4 71 21.7 85 85 WSW 7 11 29.90 1013 10 16 0.00 0.00
2:36 pm 14:36 Partly Cloudy 77 25 71 21.7 82 82 WSW 6 9 29.88 1012 10 16 0.00 0.00
2:53 pm 14:53 Mostly Sunny 78 25.6 71 21.7 79 79 SW 7 11 29.89 1012 10 16 0.00 0.00
3:31 pm 15:31 Mostly Cloudy 79 26.1 71 21.7 77 77 SW 7 11 29.87 1012 10 16 0.00 0.00
3:53 pm 15:53 Mostly Cloudy 79 26.1 69 20.6 72 72 VRB 5 7 29.89 1012 10 16 0.00 0.00
4:33 pm 16:33 Partly Cloudy 80 26.7 70 21.1 71 71 VRB 3 6 29.86 1011 10 16 0.00 0.00
4:53 pm 16:53 Mostly Sunny 82 27.8 71 21.7 69 69 Calm 29.88 1012 10 16 0.00 0.00
5:53 pm 17:53 Mostly Sunny 83 28.3 69 20.6 63 63 NW 5 7 29.87 1012 10 16 0.00 0.00
6:53 pm 18:53 Mostly Sunny 83 28.3 68 20 61 61 NW 3 6 29.86 1011 10 16 0.00 0.00
7:53 pm 19:53 Sunny 82 27.8 68 20 63 63 Calm 29.87 1012 10 16 0.00 0.00
8:53 pm 20:53 Sunny 76 24.4 71 21.7 85 85 Calm 29.88 1012 10 16 0.00 0.00
9:53 pm 21:53 Clear 73 22.8 70 21.1 90 90 Calm 29.90 1012 10 16 0.00 0.00
10:53 pm 22:53 Mostly Cloudy 75 23.9 71 21.7 88 88 S 5 7 29.91 1013 10 16 0.00 0.00
11:53 pm 23:53 Clear 73 22.8 70 21.1 90 90 SSW 7 11 29.91 1013 10 16 0.00 0.00

Powered by AerisWeather